TimeEDT,TemperatureF,Dew PointF,Humidity,Sea Level PressureIn,VisibilityMPH,Wind Direction,Wind SpeedMPH,Gust SpeedMPH,PrecipitationIn,Events,Conditions,WindDirDegrees,DateUTC
12:15 AM,62.6,55.4,77,29.97,10.0,Calm,Calm,-,N/A,,Clear,0,2012-10-06 04:15:00
12:35 AM,60.8,55.4,82,29.97,10.0,Calm,Calm,-,N/A,,Clear,0,2012-10-06 04:35:00
12:55 AM,60.8,55.4,82,29.96,10.0,Calm,Calm,-,N/A,,Clear,0,2012-10-06 04:55:00
1:15 AM,59.0,55.4,88,29.96,10.0,Calm,Calm,-,N/A,,Clear,0,2012-10-06 05:15:00
1:35 AM,60.8,55.4,82,29.96,10.0,Calm,Calm,-,N/A,,Clear,0,2012-10-06 05:35:00
1:55 AM,60.8,55.4,82,29.95,10.0,Calm,Calm,-,N/A,,Clear,0,2012-10-06 05:55:00
2:15 AM,60.8,55.4,82,29.95,10.0,Calm,Calm,-,N/A,,Clear,0,2012-10-06 06:15:00
2:35 AM,60.8,55.4,82,29.94,10.0,Calm,Calm,-,N/A,,Clear,0,2012-10-06 06:35:00
2:55 AM,60.8,55.4,82,29.93,10.0,Calm,Calm,-,N/A,,Clear,0,2012-10-06 06:55:00
3:15 AM,60.8,55.4,82,29.93,10.0,WSW,3.5,-,N/A,,Clear,240,2012-10-06 07:15:00
3:35 AM,60.8,55.4,82,29.92,10.0,SSW,3.5,-,N/A,,Clear,200,2012-10-06 07:35:00
3:55 AM,60.8,55.4,82,29.91,10.0,SSW,3.5,-,N/A,,Clear,200,2012-10-06 07:55:00
4:15 AM,60.8,55.4,82,29.91,10.0,SSW,3.5,-,N/A,,Clear,200,2012-10-06 08:15:00
4:35 AM,60.8,55.4,82,29.91,7.0,SSW,3.5,-,N/A,,Clear,200,2012-10-06 08:35:00
4:55 AM,60.8,55.4,82,29.91,7.0,Calm,Calm,-,N/A,,Clear,0,2012-10-06 08:55:00
5:15 AM,59.0,55.4,88,29.91,7.0,Calm,Calm,-,N/A,,Clear,0,2012-10-06 09:15:00
5:35 AM,57.2,55.4,94,29.91,2.0,Calm,Calm,-,N/A,,Clear,0,2012-10-06 09:35:00
5:55 AM,57.2,55.4,94,29.90,7.0,Calm,Calm,-,N/A,,Clear,0,2012-10-06 09:55:00
6:15 AM,57.2,55.4,94,29.90,5.0,Calm,Calm,-,N/A,,Clear,0,2012-10-06 10:15:00
6:35 AM,57.2,55.4,94,29.90,5.0,Calm,Calm,-,N/A,,Clear,0,2012-10-06 10:35:00
6:55 AM,57.2,55.4,94,29.90,5.0,Calm,Calm,-,N/A,,Clear,0,2012-10-06 10:55:00
7:15 AM,57.2,55.4,94,29.90,7.0,South,3.5,-,N/A,,Clear,190,2012-10-06 11:15:00
7:35 AM,59.0,55.4,88,29.90,7.0,South,3.5,-,N/A,,Clear,190,2012-10-06 11:35:00
7:55 AM,59.0,55.4,88,29.90,7.0,SW,3.5,-,N/A,,Clear,220,2012-10-06 11:55:00
8:15 AM,60.8,57.2,88,29.89,7.0,Calm,Calm,-,N/A,,Clear,0,2012-10-06 12:15:00
8:35 AM,62.6,57.2,82,29.89,10.0,SSW,3.5,-,N/A,,Clear,200,2012-10-06 12:35:00
8:55 AM,62.6,57.2,82,29.88,10.0,SSW,4.6,-,N/A,,Clear,200,2012-10-06 12:55:00
9:15 AM,64.4,59.0,83,29.89,10.0,WSW,4.6,-,N/A,,Clear,240,2012-10-06 13:15:00
9:35 AM,66.2,59.0,78,29.89,10.0,SW,6.9,-,N/A,,Clear,220,2012-10-06 13:35:00
9:55 AM,68.0,60.8,78,29.89,10.0,WSW,6.9,-,N/A,,Clear,240,2012-10-06 13:55:00
10:15 AM,69.8,59.0,68,29.89,10.0,SSW,5.8,-,N/A,,Clear,210,2012-10-06 14:15:00
10:35 AM,69.8,60.8,73,29.89,10.0,SW,3.5,-,N/A,,Clear,220,2012-10-06 14:35:00
10:55 AM,71.6,60.8,69,29.88,10.0,WSW,9.2,-,N/A,,Clear,240,2012-10-06 14:55:00
11:15 AM,73.4,60.8,65,29.87,10.0,WSW,8.1,-,N/A,,Clear,240,2012-10-06 15:15:00
11:35 AM,75.2,60.8,61,29.87,10.0,SW,6.9,-,N/A,,Clear,220,2012-10-06 15:35:00
11:55 AM,77.0,60.8,57,29.87,10.0,SW,6.9,-,N/A,,Clear,230,2012-10-06 15:55:00
12:15 PM,77.0,60.8,57,29.87,10.0,SSW,4.6,-,N/A,,Clear,210,2012-10-06 16:15:00
12:35 PM,78.8,60.8,54,29.87,10.0,SW,6.9,-,N/A,,Clear,220,2012-10-06 16:35:00
12:55 PM,78.8,60.8,54,29.87,10.0,WSW,5.8,-,N/A,,Clear,250,2012-10-06 16:55:00
1:15 PM,80.6,60.8,51,29.87,10.0,WSW,6.9,-,N/A,,Scattered Clouds,250,2012-10-06 17:15:00
1:35 PM,80.6,60.8,51,29.86,10.0,WSW,8.1,18.4,N/A,,Scattered Clouds,250,2012-10-06 17:35:00
1:55 PM,80.6,60.8,51,29.85,10.0,West,8.1,18.4,N/A,,Scattered Clouds,260,2012-10-06 17:55:00
2:15 PM,78.8,60.8,54,29.86,10.0,WSW,5.8,-,N/A,,Mostly Cloudy,250,2012-10-06 18:15:00
2:35 PM,80.6,62.6,54,29.86,10.0,West,6.9,-,N/A,,Mostly Cloudy,280,2012-10-06 18:35:00
2:55 PM,80.6,57.2,45,29.86,10.0,West,13.8,19.6,N/A,,Scattered Clouds,260,2012-10-06 18:55:00
3:15 PM,80.6,59.0,48,29.87,10.0,WNW,13.8,18.4,N/A,,Scattered Clouds,290,2012-10-06 19:15:00
3:35 PM,78.8,57.2,47,29.87,10.0,NW,10.4,-,N/A,,Mostly Cloudy,310,2012-10-06 19:35:00
3:55 PM,73.4,60.8,65,29.88,10.0,NNE,8.1,-,N/A,,Mostly Cloudy,20,2012-10-06 19:55:00
4:15 PM,73.4,60.8,65,29.88,10.0,North,6.9,-,N/A,,Mostly Cloudy,360,2012-10-06 20:15:00
4:35 PM,75.2,60.8,61,29.89,10.0,North,6.9,-,N/A,,Scattered Clouds,10,2012-10-06 20:35:00
4:55 PM,73.4,57.2,57,29.89,10.0,NNE,9.2,-,N/A,,Mostly Cloudy,20,2012-10-06 20:55:00
5:15 PM,71.6,57.2,60,29.90,10.0,NNE,10.4,-,N/A,,Overcast,30,2012-10-06 21:15:00
5:35 PM,69.8,55.4,60,29.91,10.0,NNE,8.1,-,N/A,,Mostly Cloudy,30,2012-10-06 21:35:00
5:55 PM,69.8,53.6,56,29.91,10.0,North,5.8,-,N/A,,Mostly Cloudy,10,2012-10-06 21:55:00
6:15 PM,66.2,53.6,64,29.92,10.0,North,5.8,-,N/A,,Scattered Clouds,10,2012-10-06 22:15:00
6:35 PM,66.2,51.8,60,29.94,10.0,NNE,9.2,-,N/A,,Clear,20,2012-10-06 22:35:00
7:15 PM,62.6,50.0,63,29.95,10.0,NNE,6.9,-,N/A,,Clear,30,2012-10-06 23:15:00
7:35 PM,62.6,48.2,59,29.96,10.0,NNE,6.9,-,N/A,,Clear,30,2012-10-06 23:35:00
7:55 PM,60.8,50.0,68,29.97,10.0,NNE,5.8,-,N/A,,Clear,30,2012-10-06 23:55:00
8:15 PM,60.8,48.2,63,29.99,10.0,NNE,4.6,-,N/A,,Clear,30,2012-10-07 00:15:00
8:35 PM,59.0,48.2,67,30.00,10.0,NE,5.8,-,N/A,,Clear,40,2012-10-07 00:35:00
8:55 PM,57.2,48.2,72,30.01,10.0,NNE,6.9,-,N/A,,Clear,30,2012-10-07 00:55:00
9:15 PM,57.2,46.4,67,30.01,10.0,NE,5.8,-,N/A,,Scattered Clouds,40,2012-10-07 01:15:00
9:35 PM,57.2,46.4,67,30.01,10.0,NNE,5.8,-,N/A,,Clear,30,2012-10-07 01:35:00
9:55 PM,55.4,46.4,72,30.02,10.0,NE,4.6,-,N/A,,Clear,50,2012-10-07 01:55:00
10:15 PM,55.4,44.6,67,30.03,10.0,NNE,4.6,-,N/A,,Clear,30,2012-10-07 02:15:00
10:35 PM,55.4,44.6,67,30.03,10.0,NE,3.5,-,N/A,,Clear,50,2012-10-07 02:35:00
10:55 PM,53.6,44.6,72,30.03,10.0,NE,4.6,-,N/A,,Clear,50,2012-10-07 02:55:00
11:15 PM,53.6,42.8,67,30.03,10.0,ENE,5.8,-,N/A,,Clear,60,2012-10-07 03:15:00
11:35 PM,53.6,42.8,67,30.02,10.0,ENE,5.8,-,N/A,,Clear,70,2012-10-07 03:35:00
11:55 PM,53.6,42.8,67,30.02,10.0,NE,4.6,-,N/A,,Clear,50,2012-10-07 03:55:00